Time,TemperatureF,DewpointF,PressureIn,WindDirection,WindDirectionDegrees,WindSpeedMPH,WindSpeedGustMPH,Humidity,HourlyPrecipIn,Conditions,Clouds,dailyrainin,SoftwareType,DateUTC
2013-03-09 00:00:00,42.5,40.1,29.90,SE,132,6.0,7.0,91,0.16,,SKC,0.00,VWS V14.01,2013-03-09 06:00:00,
2013-03-09 00:05:00,42.4,40.0,29.91,SE,145,4.0,5.0,91,0.16,,SKC,0.00,VWS V14.01,2013-03-09 06:05:00,
2013-03-09 00:10:00,42.5,40.1,29.91,SSE,147,1.0,5.0,91,0.15,,SKC,0.00,VWS V14.01,2013-03-09 06:10:00,
2013-03-09 00:15:00,42.5,40.1,29.90,SSE,147,3.0,5.0,91,0.15,,SKC,0.00,VWS V14.01,2013-03-09 06:15:00,
2013-03-09 00:20:00,42.5,40.1,29.90,SE,145,2.0,4.0,91,0.12,,SKC,0.00,VWS V14.01,2013-03-09 06:20:00,
2013-03-09 00:25:00,42.5,40.1,29.89,SE,136,4.0,7.0,91,0.11,,SKC,0.00,VWS V14.01,2013-03-09 06:25:00,
2013-03-09 00:30:00,42.4,40.0,29.90,SE,135,4.0,4.0,91,0.03,,SKC,0.01,VWS V14.01,2013-03-09 06:30:00,
2013-03-09 00:35:00,42.4,40.0,29.88,SE,138,5.0,11.0,91,0.02,,SKC,0.01,VWS V14.01,2013-03-09 06:35:00,
2013-03-09 00:40:00,42.4,40.2,29.88,SE,127,7.0,9.0,92,0.02,,SKC,0.01,VWS V14.01,2013-03-09 06:40:00,
2013-03-09 00:45:00,42.4,40.2,29.88,SE,132,6.0,10.0,92,0.01,,SKC,0.01,VWS V14.01,2013-03-09 06:45:00,
2013-03-09 00:50:00,42.4,40.2,29.88,SE,131,5.0,10.0,92,0.01,,SKC,0.01,VWS V14.01,2013-03-09 06:50:00,
2013-03-09 00:55:00,42.4,40.2,29.88,SE,128,7.0,10.0,92,0.01,,SKC,0.01,VWS V14.01,2013-03-09 06:55:00,
2013-03-09 01:00:00,42.5,40.3,29.87,SE,127,8.0,8.0,92,0.01,,SKC,0.01,VWS V14.01,2013-03-09 07:00:00,
2013-03-09 01:05:00,42.5,40.3,29.88,SE,132,6.0,10.0,92,0.01,,SKC,0.01,VWS V14.01,2013-03-09 07:05:00,
2013-03-09 01:10:00,42.5,40.3,29.88,SE,130,5.0,10.0,92,0.01,,SKC,0.01,VWS V14.01,2013-03-09 07:10:00,
2013-03-09 01:15:00,42.5,40.3,29.87,SE,138,6.0,11.0,92,0.01,,SKC,0.01,VWS V14.01,2013-03-09 07:15:00,
2013-03-09 01:20:00,42.6,40.4,29.87,SE,140,12.0,14.0,92,0.01,,SKC,0.01,VWS V14.01,2013-03-09 07:20:00,
2013-03-09 01:25:00,42.6,40.4,29.87,SE,133,6.0,10.0,92,0.01,,SKC,0.01,VWS V14.01,2013-03-09 07:25:00,
2013-03-09 01:30:00,42.6,40.4,29.87,SE,138,5.0,9.0,92,0.00,,SKC,0.01,VWS V14.01,2013-03-09 07:30:00,
2013-03-09 01:35:00,42.6,40.4,29.87,SE,138,3.0,12.0,92,0.00,,SKC,0.01,VWS V14.01,2013-03-09 07:35:00,
2013-03-09 01:40:00,42.6,40.4,29.87,SE,132,7.0,7.0,92,0.00,,SKC,0.01,VWS V14.01,2013-03-09 07:40:00,
2013-03-09 01:45:00,42.6,40.4,29.87,SE,129,8.0,9.0,92,0.00,,SKC,0.01,VWS V14.01,2013-03-09 07:45:00,
2013-03-09 01:51:00,42.7,40.5,29.86,SE,130,5.0,9.0,92,0.00,,SKC,0.01,VWS V14.01,2013-03-09 07:51:00,
2013-03-09 01:56:00,42.6,40.4,29.86,SE,128,9.0,9.0,92,0.00,,SKC,0.01,VWS V14.01,2013-03-09 07:56:00,
2013-03-09 02:01:00,42.6,40.4,29.86,SE,126,5.0,9.0,92,0.00,,SKC,0.01,VWS V14.01,2013-03-09 08:01:00,
2013-03-09 02:06:00,42.6,40.4,29.86,SE,125,8.0,8.0,92,0.00,,SKC,0.01,VWS V14.01,2013-03-09 08:06:00,
2013-03-09 02:11:00,42.6,40.4,29.85,SE,140,7.0,11.0,92,0.00,,SKC,0.01,VWS V14.01,2013-03-09 08:11:00,
2013-03-09 02:16:00,42.6,40.4,29.85,SE,145,7.0,10.0,92,0.00,,SKC,0.01,VWS V14.01,2013-03-09 08:16:00,
2013-03-09 02:21:00,42.6,40.4,29.84,SE,130,7.0,10.0,92,0.00,,SKC,0.01,VWS V14.01,2013-03-09 08:21:00,
2013-03-09 02:26:00,42.7,40.8,29.84,SE,127,6.0,9.0,93,0.00,,SKC,0.01,VWS V14.01,2013-03-09 08:26:00,
2013-03-09 02:31:00,42.7,40.8,29.84,SE,126,7.0,10.0,93,0.00,,SKC,0.01,VWS V14.01,2013-03-09 08:31:00,
2013-03-09 02:36:00,42.8,40.9,29.83,SE,131,8.0,10.0,93,0.00,,SKC,0.01,VWS V14.01,2013-03-09 08:36:00,
2013-03-09 02:41:00,42.8,40.9,29.83,SE,130,11.0,11.0,93,0.00,,SKC,0.01,VWS V14.01,2013-03-09 08:41:00,
2013-03-09 02:46:00,42.9,41.0,29.83,SE,128,4.0,11.0,93,0.00,,SKC,0.01,VWS V14.01,2013-03-09 08:46:00,
2013-03-09 02:51:00,42.9,41.0,29.83,ESE,121,7.0,7.0,93,0.00,,SKC,0.01,VWS V14.01,2013-03-09 08:51:00,
2013-03-09 02:56:00,42.9,41.0,29.82,ESE,111,6.0,6.0,93,0.00,,SKC,0.01,VWS V14.01,2013-03-09 08:56:00,
2013-03-09 03:01:00,42.8,40.9,29.81,ESE,112,5.0,5.0,93,0.00,,SKC,0.01,VWS V14.01,2013-03-09 09:01:00,
2013-03-09 03:06:00,42.8,40.9,29.82,ESE,109,5.0,5.0,93,0.00,,SKC,0.01,VWS V14.01,2013-03-09 09:06:00,
2013-03-09 03:11:00,42.8,40.9,29.80,ESE,108,4.0,5.0,93,0.00,,SKC,0.01,VWS V14.01,2013-03-09 09:11:00,
2013-03-09 03:16:00,42.8,40.9,29.81,ESE,116,5.0,8.0,93,0.01,,SKC,0.02,VWS V14.01,2013-03-09 09:16:00,
2013-03-09 03:21:00,42.9,41.0,29.81,ESE,116,3.0,3.0,93,0.01,,SKC,0.02,VWS V14.01,2013-03-09 09:21:00,
2013-03-09 03:26:00,43.0,41.1,29.80,ESE,115,4.0,6.0,93,0.02,,SKC,0.03,VWS V14.01,2013-03-09 09:26:00,
2013-03-09 03:31:00,43.1,41.2,29.80,ESE,109,6.0,7.0,93,0.02,,SKC,0.03,VWS V14.01,2013-03-09 09:31:00,
2013-03-09 03:36:00,42.9,41.0,29.80,ESE,110,7.0,8.0,93,0.02,,SKC,0.03,VWS V14.01,2013-03-09 09:36:00,
2013-03-09 03:41:00,42.9,41.0,29.79,ESE,109,7.0,9.0,93,0.02,,SKC,0.03,VWS V14.01,2013-03-09 09:41:00,
2013-03-09 03:46:00,43.0,41.1,29.79,ESE,110,9.0,12.0,93,0.02,,SKC,0.03,VWS V14.01,2013-03-09 09:46:00,
2013-03-09 03:51:00,43.0,41.1,29.78,ESE,109,7.0,8.0,93,0.03,,SKC,0.04,VWS V14.01,2013-03-09 09:51:00,
2013-03-09 03:56:00,43.0,41.1,29.79,ESE,113,6.0,11.0,93,0.03,,SKC,0.04,VWS V14.01,2013-03-09 09:56:00,
2013-03-09 04:01:00,43.1,41.2,29.78,ESE,118,7.0,10.0,93,0.04,,SKC,0.05,VWS V14.01,2013-03-09 10:01:00,
2013-03-09 04:06:00,43.3,41.4,29.78,ESE,113,9.0,11.0,93,0.04,,SKC,0.05,VWS V14.01,2013-03-09 10:06:00,
2013-03-09 04:11:00,43.4,41.5,29.78,ESE,115,6.0,10.0,93,0.04,,SKC,0.05,VWS V14.01,2013-03-09 10:11:00,
2013-03-09 04:16:00,43.4,41.5,29.77,ESE,112,5.0,7.0,93,0.03,,SKC,0.05,VWS V14.01,2013-03-09 10:16:00,
2013-03-09 04:21:00,43.4,41.5,29.77,ESE,108,9.0,9.0,93,0.03,,SKC,0.05,VWS V14.01,2013-03-09 10:21:00,
2013-03-09 04:26:00,43.2,41.3,29.77,ESE,111,6.0,9.0,93,0.02,,SKC,0.05,VWS V14.01,2013-03-09 10:26:00,
2013-03-09 04:32:00,43.1,41.2,29.78,ESE,109,7.0,8.0,93,0.02,,SKC,0.05,VWS V14.01,2013-03-09 10:32:00,
2013-03-09 04:37:00,43.2,41.3,29.77,ESE,109,6.0,6.0,93,0.02,,SKC,0.05,VWS V14.01,2013-03-09 10:37:00,
2013-03-09 04:42:00,43.2,41.6,29.77,ESE,106,7.0,7.0,94,0.02,,SKC,0.05,VWS V14.01,2013-03-09 10:42:00,
2013-03-09 04:47:00,43.3,41.7,29.77,ESE,115,5.0,7.0,94,0.02,,SKC,0.05,VWS V14.01,2013-03-09 10:47:00,
2013-03-09 04:52:00,43.3,41.7,29.77,ESE,121,5.0,5.0,94,0.01,,SKC,0.05,VWS V14.01,2013-03-09 10:52:00,
2013-03-09 04:57:00,43.3,41.7,29.77,ESE,112,7.0,8.0,94,0.01,,SKC,0.05,VWS V14.01,2013-03-09 10:57:00,
2013-03-09 05:02:00,43.4,41.8,29.76,ESE,110,7.0,7.0,94,0.00,,SKC,0.05,VWS V14.01,2013-03-09 11:02:00,
2013-03-09 05:07:00,43.3,41.7,29.76,ESE,113,5.0,9.0,94,0.00,,SKC,0.05,VWS V14.01,2013-03-09 11:07:00,
2013-03-09 05:12:00,43.2,41.6,29.76,ESE,109,7.0,9.0,94,0.00,,SKC,0.05,VWS V14.01,2013-03-09 11:12:00,
2013-03-09 05:17:00,43.2,41.6,29.76,ESE,109,7.0,8.0,94,0.00,,SKC,0.05,VWS V14.01,2013-03-09 11:17:00,
2013-03-09 05:22:00,43.1,41.2,29.75,ESE,108,7.0,7.0,93,0.00,,SKC,0.05,VWS V14.01,2013-03-09 11:22:00,
2013-03-09 05:27:00,43.1,41.2,29.75,ESE,103,7.0,9.0,93,0.00,,SKC,0.05,VWS V14.01,2013-03-09 11:27:00,
2013-03-09 05:32:00,43.0,41.1,29.75,East,100,6.0,6.0,93,0.00,,SKC,0.05,VWS V14.01,2013-03-09 11:32:00,
2013-03-09 05:37:00,42.8,40.9,29.74,East,99,7.0,9.0,93,0.00,,SKC,0.05,VWS V14.01,2013-03-09 11:37:00,
2013-03-09 05:42:00,42.7,40.8,29.75,ESE,103,7.0,9.0,93,0.00,,SKC,0.05,VWS V14.01,2013-03-09 11:42:00,
2013-03-09 05:47:00,42.7,40.8,29.75,ESE,106,9.0,10.0,93,0.00,,SKC,0.05,VWS V14.01,2013-03-09 11:47:00,
2013-03-09 05:52:00,42.7,41.1,29.75,ESE,112,6.0,8.0,94,0.00,,SKC,0.05,VWS V14.01,2013-03-09 11:52:00,
2013-03-09 05:57:00,42.7,41.1,29.74,ESE,110,7.0,7.0,94,0.00,,SKC,0.05,VWS V14.01,2013-03-09 11:57:00,
2013-03-09 06:02:00,42.7,41.1,29.74,ESE,104,5.0,6.0,94,0.00,,SKC,0.05,VWS V14.01,2013-03-09 12:02:00,
2013-03-09 06:07:00,42.7,41.1,29.75,ESE,114,6.0,9.0,94,0.00,,SKC,0.05,VWS V14.01,2013-03-09 12:07:00,
2013-03-09 06:12:00,42.8,41.2,29.74,ESE,111,7.0,10.0,94,0.00,,SKC,0.05,VWS V14.01,2013-03-09 12:12:00,
2013-03-09 06:17:00,42.8,41.2,29.74,ESE,112,5.0,6.0,94,0.00,,SKC,0.05,VWS V14.01,2013-03-09 12:17:00,
2013-03-09 06:22:00,42.9,41.3,29.74,ESE,121,5.0,11.0,94,0.00,,SKC,0.05,VWS V14.01,2013-03-09 12:22:00,
2013-03-09 06:27:00,43.0,41.4,29.74,ESE,115,8.0,10.0,94,0.00,,SKC,0.05,VWS V14.01,2013-03-09 12:27:00,
2013-03-09 06:32:00,43.1,41.2,29.74,ESE,115,6.0,9.0,93,0.00,,SKC,0.05,VWS V14.01,2013-03-09 12:32:00,
2013-03-09 06:37:00,43.1,41.2,29.73,ESE,115,8.0,13.0,93,0.00,,SKC,0.05,VWS V14.01,2013-03-09 12:37:00,
2013-03-09 06:42:00,43.2,41.3,29.73,ESE,110,8.0,10.0,93,0.00,,SKC,0.05,VWS V14.01,2013-03-09 12:42:00,
2013-03-09 06:47:00,43.2,41.3,29.72,ESE,112,6.0,10.0,93,0.00,,SKC,0.05,VWS V14.01,2013-03-09 12:47:00,
2013-03-09 06:52:00,43.2,41.3,29.72,ESE,106,7.0,7.0,93,0.00,,SKC,0.05,VWS V14.01,2013-03-09 12:52:00,
2013-03-09 06:57:00,43.1,41.2,29.72,ESE,111,4.0,6.0,93,0.00,,SKC,0.05,VWS V14.01,2013-03-09 12:57:00,
2013-03-09 07:02:00,43.2,41.3,29.72,ESE,107,6.0,7.0,93,0.00,,SKC,0.05,VWS V14.01,2013-03-09 13:02:00,
2013-03-09 07:07:00,43.2,41.3,29.71,ESE,107,5.0,7.0,93,0.00,,SKC,0.05,VWS V14.01,2013-03-09 13:07:00,
2013-03-09 07:12:00,43.3,41.4,29.71,ESE,105,6.0,9.0,93,0.00,,SKC,0.05,VWS V14.01,2013-03-09 13:12:00,
2013-03-09 07:17:00,43.4,41.5,29.70,ESE,105,10.0,10.0,93,0.00,,SKC,0.05,VWS V14.01,2013-03-09 13:17:00,
2013-03-09 07:22:00,43.5,41.6,29.70,East,101,9.0,11.0,93,0.00,,SKC,0.05,VWS V14.01,2013-03-09 13:22:00,
2013-03-09 07:27:00,43.6,41.7,29.69,ESE,103,6.0,11.0,93,0.00,,SKC,0.05,VWS V14.01,2013-03-09 13:27:00,
2013-03-09 07:32:00,43.6,41.7,29.69,ESE,103,6.0,9.0,93,0.00,,SKC,0.05,VWS V14.01,2013-03-09 13:32:00,
2013-03-09 07:37:00,43.8,41.9,29.68,East,99,7.0,10.0,93,0.00,,SKC,0.05,VWS V14.01,2013-03-09 13:37:00,
2013-03-09 07:42:00,43.9,42.0,29.68,East,94,8.0,10.0,93,0.00,,SKC,0.05,VWS V14.01,2013-03-09 13:42:00,
2013-03-09 07:47:00,44.0,42.1,29.69,East,98,5.0,6.0,93,0.00,,SKC,0.05,VWS V14.01,2013-03-09 13:47:00,
2013-03-09 07:52:00,44.0,42.1,29.68,East,93,6.0,8.0,93,0.00,,SKC,0.05,VWS V14.01,2013-03-09 13:52:00,
2013-03-09 07:57:00,44.0,41.8,29.67,East,93,7.0,8.0,92,0.00,,SKC,0.05,VWS V14.01,2013-03-09 13:57:00,
2013-03-09 08:02:00,44.0,41.8,29.67,East,92,9.0,9.0,92,0.00,,SKC,0.05,VWS V14.01,2013-03-09 14:02:00,
2013-03-09 08:07:00,44.0,41.8,29.68,East,93,7.0,8.0,92,0.00,,SKC,0.05,VWS V14.01,2013-03-09 14:07:00,
2013-03-09 08:13:00,43.9,41.7,29.67,East,93,11.0,11.0,92,0.00,,SKC,0.05,VWS V14.01,2013-03-09 14:13:00,
2013-03-09 08:18:00,43.9,41.7,29.67,East,92,11.0,11.0,92,0.00,,SKC,0.05,VWS V14.01,2013-03-09 14:18:00,
2013-03-09 08:23:00,44.0,41.8,29.67,East,91,9.0,11.0,92,0.00,,SKC,0.05,VWS V14.01,2013-03-09 14:23:00,
2013-03-09 08:28:00,44.1,41.9,29.66,East,97,12.0,12.0,92,0.00,,SKC,0.05,VWS V14.01,2013-03-09 14:28:00,
2013-03-09 08:33:00,44.2,42.0,29.66,ESE,104,11.0,12.0,92,0.00,,SKC,0.05,VWS V14.01,2013-03-09 14:33:00,
2013-03-09 08:38:00,44.4,42.2,29.66,East,93,10.0,14.0,92,0.00,,SKC,0.05,VWS V14.01,2013-03-09 14:38:00,
2013-03-09 08:43:00,44.5,42.3,29.67,East,91,7.0,7.0,92,0.00,,SKC,0.05,VWS V14.01,2013-03-09 14:43:00,
2013-03-09 08:48:00,44.7,42.5,29.68,East,98,5.0,5.0,92,0.00,,SKC,0.05,VWS V14.01,2013-03-09 14:48:00,
2013-03-09 08:53:00,44.8,42.6,29.68,East,98,4.0,6.0,92,0.00,,SKC,0.05,VWS V14.01,2013-03-09 14:53:00,
2013-03-09 08:58:00,44.9,42.7,29.67,ESE,109,6.0,10.0,92,0.00,,SKC,0.05,VWS V14.01,2013-03-09 14:58:00,
2013-03-09 09:03:00,45.1,42.9,29.67,ESE,109,10.0,10.0,92,0.00,,SKC,0.05,VWS V14.01,2013-03-09 15:03:00,
2013-03-09 09:08:00,45.3,42.8,29.67,ESE,103,6.0,8.0,91,0.00,,SKC,0.05,VWS V14.01,2013-03-09 15:08:00,
2013-03-09 09:13:00,45.4,42.9,29.67,ESE,105,8.0,11.0,91,0.00,,SKC,0.05,VWS V14.01,2013-03-09 15:13:00,
2013-03-09 09:18:00,45.4,42.9,29.67,East,101,5.0,6.0,91,0.00,,SKC,0.05,VWS V14.01,2013-03-09 15:18:00,
2013-03-09 09:23:00,45.4,42.9,29.66,East,98,4.0,5.0,91,0.00,,SKC,0.05,VWS V14.01,2013-03-09 15:23:00,
2013-03-09 09:28:00,45.3,42.8,29.66,East,98,6.0,7.0,91,0.00,,SKC,0.05,VWS V14.01,2013-03-09 15:28:00,
2013-03-09 09:33:00,45.4,42.9,29.65,East,90,11.0,11.0,91,0.00,,SKC,0.05,VWS V14.01,2013-03-09 15:33:00,
2013-03-09 09:38:00,45.4,42.9,29.64,East,92,12.0,12.0,91,0.00,,SKC,0.05,VWS V14.01,2013-03-09 15:38:00,
2013-03-09 09:43:00,45.4,42.9,29.64,East,94,11.0,13.0,91,0.00,,SKC,0.05,VWS V14.01,2013-03-09 15:43:00,
2013-03-09 09:48:00,45.5,43.0,29.63,East,86,11.0,13.0,91,0.00,,SKC,0.05,VWS V14.01,2013-03-09 15:48:00,
2013-03-09 09:53:00,45.8,43.3,29.63,East,101,10.0,10.0,91,0.00,,SKC,0.05,VWS V14.01,2013-03-09 15:53:00,
2013-03-09 09:58:00,46.0,43.5,29.65,East,101,2.0,5.0,91,0.00,,SKC,0.05,VWS V14.01,2013-03-09 15:58:00,
2013-03-09 10:03:00,46.1,43.6,29.63,East,94,6.0,8.0,91,0.00,,SKC,0.05,VWS V14.01,2013-03-09 16:03:00,
2013-03-09 10:08:00,46.3,43.8,29.61,ENE,78,10.0,11.0,91,0.00,,SKC,0.05,VWS V14.01,2013-03-09 16:08:00,
2013-03-09 10:13:00,46.5,44.0,29.63,ENE,71,3.0,3.0,91,0.00,,SKC,0.05,VWS V14.01,2013-03-09 16:13:00,
2013-03-09 10:18:00,46.6,44.1,29.62,ENE,67,5.0,6.0,91,0.00,,SKC,0.05,VWS V14.01,2013-03-09 16:18:00,
2013-03-09 10:23:00,46.9,44.4,29.63,ENE,67,2.0,4.0,91,0.00,,SKC,0.05,VWS V14.01,2013-03-09 16:23:00,
2013-03-09 10:28:00,47.0,44.5,29.64,ENE,67,3.0,4.0,91,0.00,,SKC,0.05,VWS V14.01,2013-03-09 16:28:00,
2013-03-09 10:33:00,47.2,44.7,29.63,ENE,67,4.0,6.0,91,0.00,,SKC,0.05,VWS V14.01,2013-03-09 16:33:00,
2013-03-09 10:38:00,47.2,44.7,29.63,ENE,68,6.0,7.0,91,0.00,,SKC,0.05,VWS V14.01,2013-03-09 16:38:00,
2013-03-09 10:43:00,47.2,44.7,29.63,ENE,69,2.0,5.0,91,0.00,,SKC,0.05,VWS V14.01,2013-03-09 16:43:00,
2013-03-09 10:48:00,47.4,44.6,29.64,ENE,69,5.0,6.0,90,0.00,,SKC,0.05,VWS V14.01,2013-03-09 16:48:00,
2013-03-09 10:53:00,47.6,44.8,29.64,ENE,69,3.0,3.0,90,0.00,,SKC,0.05,VWS V14.01,2013-03-09 16:53:00,
2013-03-09 10:59:00,47.8,45.3,29.63,ENE,69,4.0,4.0,91,0.00,,SKC,0.05,VWS V14.01,2013-03-09 16:59:00,
2013-03-09 11:04:00,48.0,45.5,29.63,ENE,69,3.0,3.0,91,0.00,,SKC,0.05,VWS V14.01,2013-03-09 17:04:00,
2013-03-09 11:09:00,48.3,45.8,29.63,ENE,69,5.0,5.0,91,0.00,,SKC,0.05,VWS V14.01,2013-03-09 17:09:00,
2013-03-09 11:14:00,48.6,46.1,29.63,ENE,69,5.0,5.0,91,0.00,,SKC,0.05,VWS V14.01,2013-03-09 17:14:00,
2013-03-09 11:19:00,49.0,46.5,29.63,ENE,69,5.0,5.0,91,0.00,,SKC,0.05,VWS V14.01,2013-03-09 17:19:00,
2013-03-09 11:25:00,49.4,46.9,29.62,ENE,71,9.0,9.0,91,0.00,,SKC,0.05,VWS V14.01,2013-03-09 17:25:00,
2013-03-09 11:32:00,49.7,47.2,29.62,ENE,71,5.0,6.0,91,0.00,,SKC,0.05,VWS V14.01,2013-03-09 17:32:00,
2013-03-09 11:45:00,50.3,47.8,29.62,ENE,76,6.0,6.0,91,0.00,,SKC,0.05,VWS V14.01,2013-03-09 17:45:00,
2013-03-09 11:50:00,50.7,48.2,29.63,ENE,76,5.0,5.0,91,0.00,,SKC,0.05,VWS V14.01,2013-03-09 17:50:00,
2013-03-09 11:55:00,51.0,48.8,29.63,ENE,76,3.0,4.0,92,0.00,,SKC,0.05,VWS V14.01,2013-03-09 17:55:00,
2013-03-09 12:00:00,51.4,49.2,29.61,ENE,76,4.0,5.0,92,0.00,,SKC,0.05,VWS V14.01,2013-03-09 18:00:00,
2013-03-09 12:07:00,52.1,50.1,29.61,ENE,76,4.0,5.0,93,0.00,,SKC,0.05,VWS V14.01,2013-03-09 18:07:00,
2013-03-09 12:13:00,52.6,50.6,29.61,ENE,78,4.0,5.0,93,0.00,,SKC,0.05,VWS V14.01,2013-03-09 18:13:00,
2013-03-09 12:18:00,52.9,50.9,29.61,East,85,4.0,5.0,93,0.00,,SKC,0.05,VWS V14.01,2013-03-09 18:18:00,
2013-03-09 12:23:00,53.2,51.2,29.61,ESE,105,5.0,5.0,93,0.00,,SKC,0.05,VWS V14.01,2013-03-09 18:23:00,
2013-03-09 12:29:00,53.6,51.6,29.60,ESE,112,10.0,10.0,93,0.00,,SKC,0.05,VWS V14.01,2013-03-09 18:29:00,
2013-03-09 12:34:00,53.9,51.9,29.60,ESE,119,6.0,7.0,93,0.00,,SKC,0.05,VWS V14.01,2013-03-09 18:34:00,
2013-03-09 12:39:00,54.2,52.2,29.60,ESE,114,7.0,10.0,93,0.00,,SKC,0.05,VWS V14.01,2013-03-09 18:39:00,
2013-03-09 12:44:00,54.8,53.1,29.60,SE,128,6.0,10.0,94,0.00,,SKC,0.05,VWS V14.01,2013-03-09 18:44:00,
2013-03-09 12:49:00,55.2,53.5,29.60,SE,136,3.0,7.0,94,0.00,,SKC,0.05,VWS V14.01,2013-03-09 18:49:00,
2013-03-09 12:54:00,55.4,53.4,29.59,SE,136,3.0,10.0,93,0.00,,SKC,0.05,VWS V14.01,2013-03-09 18:54:00,
2013-03-09 12:59:00,55.5,53.5,29.58,SE,131,5.0,6.0,93,0.00,,SKC,0.05,VWS V14.01,2013-03-09 18:59:00,
2013-03-09 13:04:00,55.7,53.7,29.59,SE,143,3.0,4.0,93,0.00,,SKC,0.05,VWS V14.01,2013-03-09 19:04:00,
2013-03-09 13:09:00,56.1,54.1,29.58,South,189,4.0,11.0,93,0.00,,SKC,0.05,VWS V14.01,2013-03-09 19:09:00,
2013-03-09 13:14:00,56.6,54.6,29.58,SSW,202,12.0,14.0,93,0.00,,SKC,0.05,VWS V14.01,2013-03-09 19:14:00,
2013-03-09 13:19:00,56.9,54.3,29.59,SSE,163,10.0,15.0,91,0.00,,SKC,0.05,VWS V14.01,2013-03-09 19:19:00,
2013-03-09 13:24:00,57.1,54.2,29.59,SSW,202,15.0,15.0,90,0.00,,SKC,0.05,VWS V14.01,2013-03-09 19:24:00,
2013-03-09 13:29:00,57.2,54.0,29.58,South,190,11.0,15.0,89,0.00,,SKC,0.05,VWS V14.01,2013-03-09 19:29:00,
2013-03-09 13:34:00,56.9,53.4,29.57,SSE,168,3.0,11.0,88,0.00,,SKC,0.05,VWS V14.01,2013-03-09 19:34:00,
2013-03-09 13:39:00,56.6,52.8,29.58,SSE,159,9.0,13.0,87,0.00,,SKC,0.05,VWS V14.01,2013-03-09 19:39:00,
2013-03-09 13:44:00,56.4,52.6,29.57,SSE,161,7.0,13.0,87,0.00,,SKC,0.05,VWS V14.01,2013-03-09 19:44:00,
2013-03-09 13:50:00,56.2,52.4,29.56,SSE,159,2.0,3.0,87,0.00,,SKC,0.05,VWS V14.01,2013-03-09 19:50:00,
2013-03-09 13:55:00,56.2,52.4,29.56,SE,144,6.0,10.0,87,0.00,,SKC,0.05,VWS V14.01,2013-03-09 19:55:00,
2013-03-09 14:00:00,56.1,52.3,29.56,SSE,152,6.0,7.0,87,0.00,,SKC,0.05,VWS V14.01,2013-03-09 20:00:00,
2013-03-09 14:05:00,56.1,52.3,29.56,SSE,150,3.0,7.0,87,0.00,,SKC,0.05,VWS V14.01,2013-03-09 20:05:00,
2013-03-09 14:10:00,56.0,52.2,29.56,SSE,158,10.0,10.0,87,0.00,,SKC,0.05,VWS V14.01,2013-03-09 20:10:00,
2013-03-09 14:15:00,55.9,52.1,29.56,SE,140,4.0,9.0,87,0.00,,SKC,0.05,VWS V14.01,2013-03-09 20:15:00,
2013-03-09 14:20:00,55.8,52.0,29.56,SSE,147,4.0,6.0,87,0.00,,SKC,0.05,VWS V14.01,2013-03-09 20:20:00,
2013-03-09 14:25:00,55.9,52.4,29.56,SE,144,9.0,12.0,88,0.00,,SKC,0.05,VWS V14.01,2013-03-09 20:25:00,
2013-03-09 14:30:00,55.9,52.4,29.55,SSE,153,4.0,7.0,88,0.00,,SKC,0.05,VWS V14.01,2013-03-09 20:30:00,
2013-03-09 14:35:00,55.9,52.4,29.57,SSE,161,5.0,7.0,88,0.00,,SKC,0.05,VWS V14.01,2013-03-09 20:35:00,
2013-03-09 14:40:00,56.0,52.5,29.57,SSE,163,5.0,7.0,88,0.00,,SKC,0.05,VWS V14.01,2013-03-09 20:40:00,
2013-03-09 14:45:00,56.0,52.5,29.58,SSE,153,5.0,9.0,88,0.00,,SKC,0.05,VWS V14.01,2013-03-09 20:45:00,
2013-03-09 14:50:00,56.0,52.5,29.58,SSE,150,6.0,9.0,88,0.00,,SKC,0.05,VWS V14.01,2013-03-09 20:50:00,
2013-03-09 14:55:00,56.0,52.5,29.58,SSE,151,6.0,7.0,88,0.00,,SKC,0.05,VWS V14.01,2013-03-09 20:55:00,
2013-03-09 15:00:00,56.0,52.5,29.58,SSE,152,9.0,9.0,88,0.00,,SKC,0.05,VWS V14.01,2013-03-09 21:00:00,
2013-03-09 15:05:00,56.0,52.5,29.58,SSE,167,6.0,10.0,88,0.00,,SKC,0.05,VWS V14.01,2013-03-09 21:05:00,
2013-03-09 15:10:00,56.0,52.5,29.58,SSE,161,14.0,16.0,88,0.00,,SKC,0.05,VWS V14.01,2013-03-09 21:10:00,
2013-03-09 15:15:00,56.0,52.5,29.58,SSE,159,12.0,16.0,88,0.00,,SKC,0.05,VWS V14.01,2013-03-09 21:15:00,
2013-03-09 15:20:00,56.0,52.5,29.56,SSE,163,9.0,10.0,88,0.00,,SKC,0.05,VWS V14.01,2013-03-09 21:20:00,
2013-03-09 15:26:00,55.8,52.3,29.55,SE,136,10.0,13.0,88,0.00,,SKC,0.05,VWS V14.01,2013-03-09 21:26:00,
2013-03-09 15:31:00,55.7,52.2,29.54,SSE,163,13.0,13.0,88,0.00,,SKC,0.05,VWS V14.01,2013-03-09 21:31:00,
2013-03-09 15:36:00,55.5,52.0,29.55,ESE,123,7.0,8.0,88,0.00,,SKC,0.05,VWS V14.01,2013-03-09 21:36:00,
2013-03-09 15:41:00,55.4,52.2,29.54,ESE,107,13.0,13.0,89,0.00,,SKC,0.05,VWS V14.01,2013-03-09 21:41:00,
2013-03-09 15:46:00,55.1,51.9,29.52,ESE,117,12.0,13.0,89,0.00,,SKC,0.05,VWS V14.01,2013-03-09 21:46:00,
2013-03-09 15:51:00,55.0,52.1,29.52,SE,132,13.0,13.0,90,0.00,,SKC,0.05,VWS V14.01,2013-03-09 21:51:00,
2013-03-09 15:56:00,55.3,52.7,29.52,SE,125,6.0,10.0,91,0.00,,SKC,0.05,VWS V14.01,2013-03-09 21:56:00,
2013-03-09 16:01:00,55.5,52.9,29.52,SE,130,7.0,7.0,91,0.00,,SKC,0.05,VWS V14.01,2013-03-09 22:01:00,
2013-03-09 16:06:00,55.6,53.0,29.53,SE,134,5.0,8.0,91,0.00,,SKC,0.05,VWS V14.01,2013-03-09 22:06:00,
2013-03-09 16:11:00,55.7,52.8,29.53,SE,136,4.0,6.0,90,0.00,,SKC,0.05,VWS V14.01,2013-03-09 22:11:00,
2013-03-09 16:16:00,55.7,52.8,29.54,SE,138,3.0,5.0,90,0.00,,SKC,0.05,VWS V14.01,2013-03-09 22:16:00,
2013-03-09 16:21:00,55.7,52.8,29.54,SE,138,4.0,4.0,90,0.00,,SKC,0.05,VWS V14.01,2013-03-09 22:21:00,
2013-03-09 16:26:00,55.9,53.0,29.53,SE,127,5.0,9.0,90,0.00,,SKC,0.05,VWS V14.01,2013-03-09 22:26:00,
2013-03-09 16:31:00,56.0,53.1,29.53,SE,137,3.0,6.0,90,0.00,,SKC,0.05,VWS V14.01,2013-03-09 22:31:00,
2013-03-09 16:36:00,56.3,53.4,29.53,SE,141,5.0,6.0,90,0.00,,SKC,0.05,VWS V14.01,2013-03-09 22:36:00,
2013-03-09 16:41:00,56.6,53.7,29.53,SE,140,4.0,5.0,90,0.00,,SKC,0.05,VWS V14.01,2013-03-09 22:41:00,
2013-03-09 16:46:00,56.7,53.8,29.53,SE,135,6.0,7.0,90,0.00,,SKC,0.05,VWS V14.01,2013-03-09 22:46:00,
2013-03-09 16:51:00,56.7,53.5,29.53,South,175,10.0,10.0,89,0.00,,SKC,0.05,VWS V14.01,2013-03-09 22:51:00,
2013-03-09 16:56:00,56.7,53.5,29.54,SSE,159,3.0,5.0,89,0.00,,SKC,0.05,VWS V14.01,2013-03-09 22:56:00,
2013-03-09 17:01:00,56.7,53.5,29.54,SSE,154,4.0,4.0,89,0.00,,SKC,0.05,VWS V14.01,2013-03-09 23:01:00,
2013-03-09 17:06:00,56.7,53.5,29.53,SSE,154,4.0,6.0,89,0.00,,SKC,0.05,VWS V14.01,2013-03-09 23:06:00,
2013-03-09 17:11:00,56.6,53.1,29.55,SSE,154,8.0,8.0,88,0.00,,SKC,0.05,VWS V14.01,2013-03-09 23:11:00,
2013-03-09 17:16:00,56.4,52.9,29.54,SSE,159,4.0,7.0,88,0.00,,SKC,0.05,VWS V14.01,2013-03-09 23:16:00,
2013-03-09 17:21:00,56.3,52.8,29.55,SSE,157,2.0,3.0,88,0.00,,SKC,0.05,VWS V14.01,2013-03-09 23:21:00,
2013-03-09 17:26:00,56.2,53.0,29.55,SSE,157,4.0,6.0,89,0.00,,SKC,0.05,VWS V14.01,2013-03-09 23:26:00,
2013-03-09 17:31:00,56.1,52.9,29.55,SSE,158,4.0,4.0,89,0.00,,SKC,0.05,VWS V14.01,2013-03-09 23:31:00,
2013-03-09 17:36:00,56.0,52.8,29.56,SSE,155,7.0,7.0,89,0.00,,SKC,0.05,VWS V14.01,2013-03-09 23:36:00,
2013-03-09 17:41:00,55.8,52.3,29.56,SSE,157,3.0,6.0,88,0.00,,SKC,0.05,VWS V14.01,2013-03-09 23:41:00,
2013-03-09 17:46:00,55.7,52.2,29.56,SSE,157,5.0,5.0,88,0.00,,SKC,0.05,VWS V14.01,2013-03-09 23:46:00,
2013-03-09 17:51:00,55.5,52.0,29.56,SSE,155,2.0,3.0,88,0.00,,SKC,0.05,VWS V14.01,2013-03-09 23:51:00,
2013-03-09 17:56:00,55.4,52.2,29.57,SSE,156,5.0,5.0,89,0.00,,SKC,0.05,VWS V14.01,2013-03-09 23:56:00,
2013-03-09 18:01:00,55.3,52.1,29.57,SSE,155,1.0,4.0,89,0.00,,SKC,0.05,VWS V14.01,2013-03-10 00:01:00,
2013-03-09 18:06:00,55.1,51.9,29.58,SSE,155,1.0,5.0,89,0.00,,SKC,0.05,VWS V14.01,2013-03-10 00:06:00,
2013-03-09 18:11:00,55.0,51.8,29.58,SSE,155,2.0,3.0,89,0.00,,SKC,0.05,VWS V14.01,2013-03-10 00:11:00,
2013-03-09 18:16:00,54.8,51.6,29.58,SSE,155,3.0,5.0,89,0.00,,SKC,0.05,VWS V14.01,2013-03-10 00:16:00,
2013-03-09 18:21:00,54.7,51.5,29.58,SSE,155,2.0,4.0,89,0.00,,SKC,0.05,VWS V14.01,2013-03-10 00:21:00,
2013-03-09 18:26:00,54.6,51.4,29.59,SSE,155,3.0,4.0,89,0.00,,SKC,0.05,VWS V14.01,2013-03-10 00:26:00,
2013-03-09 18:31:00,54.5,51.3,29.59,SSE,155,1.0,1.0,89,0.00,,SKC,0.05,VWS V14.01,2013-03-10 00:31:00,
2013-03-09 18:37:00,54.4,51.2,29.58,SSE,155,1.0,2.0,89,0.00,,SKC,0.05,VWS V14.01,2013-03-10 00:37:00,
2013-03-09 18:42:00,54.2,51.3,29.58,SSE,155,2.0,2.0,90,0.00,,SKC,0.05,VWS V14.01,2013-03-10 00:42:00,
2013-03-09 18:47:00,53.8,50.6,29.58,SSE,155,2.0,2.0,89,0.00,,SKC,0.05,VWS V14.01,2013-03-10 00:47:00,
2013-03-09 18:52:00,53.5,50.6,29.59,SSE,155,1.0,1.0,90,0.00,,SKC,0.05,VWS V14.01,2013-03-10 00:52:00,
2013-03-09 18:57:00,52.4,49.0,29.61,NNW,333,6.0,9.0,88,0.00,,SKC,0.05,VWS V14.01,2013-03-10 00:57:00,
2013-03-09 19:02:00,49.3,44.7,29.62,NW,315,17.0,17.0,84,0.00,,SKC,0.05,VWS V14.01,2013-03-10 01:02:00,
2013-03-09 19:07:00,46.4,41.5,29.62,NNW,345,13.0,17.0,83,0.00,,SKC,0.05,VWS V14.01,2013-03-10 01:07:00,
2013-03-09 19:12:00,44.2,39.7,29.62,NNW,343,12.0,17.0,84,0.00,,SKC,0.05,VWS V14.01,2013-03-10 01:12:00,
2013-03-09 19:17:00,43.1,39.2,29.62,North,355,19.0,19.0,86,0.00,,SKC,0.05,VWS V14.01,2013-03-10 01:17:00,
2013-03-09 19:22:00,42.4,39.1,29.62,North,355,6.0,10.0,88,0.00,,SKC,0.05,VWS V14.01,2013-03-10 01:22:00,
2013-03-09 19:27:00,42.2,39.2,29.63,North,360,17.0,21.0,89,0.00,,SKC,0.05,VWS V14.01,2013-03-10 01:27:00,
2013-03-09 19:32:00,41.9,38.9,29.64,NW,306,14.0,16.0,89,0.00,,SKC,0.05,VWS V14.01,2013-03-10 01:32:00,
2013-03-09 19:37:00,41.6,38.9,29.65,WNW,297,12.0,13.0,90,0.00,,SKC,0.05,VWS V14.01,2013-03-10 01:37:00,
2013-03-09 19:42:00,41.3,38.6,29.64,NNW,331,13.0,15.0,90,0.00,,SKC,0.05,VWS V14.01,2013-03-10 01:42:00,
2013-03-09 19:47:00,41.0,38.3,29.65,NNW,338,13.0,21.0,90,0.00,,SKC,0.05,VWS V14.01,2013-03-10 01:47:00,
2013-03-09 19:52:00,40.7,38.0,29.65,NW,314,18.0,22.0,90,0.00,,SKC,0.05,VWS V14.01,2013-03-10 01:52:00,
2013-03-09 19:57:00,40.4,37.7,29.65,NW,322,13.0,16.0,90,0.00,,SKC,0.05,VWS V14.01,2013-03-10 01:57:00,
2013-03-09 20:02:00,40.1,37.7,29.65,NNW,333,11.0,15.0,91,0.00,,SKC,0.05,VWS V14.01,2013-03-10 02:02:00,
2013-03-09 20:07:00,39.9,37.5,29.66,NNW,331,11.0,17.0,91,0.00,,SKC,0.05,VWS V14.01,2013-03-10 02:07:00,
2013-03-09 20:12:00,39.5,37.1,29.66,NNW,342,22.0,22.0,91,0.00,,SKC,0.05,VWS V14.01,2013-03-10 02:12:00,
2013-03-09 20:17:00,39.2,36.8,29.67,NNW,345,17.0,21.0,91,0.00,,SKC,0.05,VWS V14.01,2013-03-10 02:17:00,
2013-03-09 20:22:00,39.0,36.6,29.67,NNW,329,13.0,17.0,91,0.00,,SKC,0.05,VWS V14.01,2013-03-10 02:22:00,
2013-03-09 20:27:00,38.9,36.5,29.67,NW,323,12.0,17.0,91,0.00,,SKC,0.05,VWS V14.01,2013-03-10 02:27:00,
2013-03-09 20:32:00,38.8,36.4,29.69,NW,323,13.0,18.0,91,0.00,,SKC,0.05,VWS V14.01,2013-03-10 02:32:00,
2013-03-09 20:37:00,38.6,36.2,29.69,NNW,340,14.0,17.0,91,0.00,,SKC,0.05,VWS V14.01,2013-03-10 02:37:00,
2013-03-09 20:42:00,38.5,36.1,29.69,NNW,343,19.0,19.0,91,0.00,,SKC,0.05,VWS V14.01,2013-03-10 02:42:00,
2013-03-09 20:47:00,38.3,35.9,29.69,NNW,345,15.0,20.0,91,0.00,,SKC,0.05,VWS V14.01,2013-03-10 02:47:00,
2013-03-09 20:52:00,38.0,35.6,29.69,NNW,342,16.0,23.0,91,0.00,,SKC,0.05,VWS V14.01,2013-03-10 02:52:00,
2013-03-09 20:57:00,37.8,35.4,29.69,NW,321,9.0,14.0,91,0.00,,SKC,0.05,VWS V14.01,2013-03-10 02:57:00,
2013-03-09 21:02:00,37.7,35.3,29.69,NNW,341,15.0,20.0,91,0.00,,SKC,0.05,VWS V14.01,2013-03-10 03:02:00,
2013-03-09 21:07:00,37.6,35.5,29.69,North,350,10.0,14.0,92,0.00,,SKC,0.05,VWS V14.01,2013-03-10 03:07:00,
2013-03-09 21:12:00,37.5,35.4,29.69,NNW,334,17.0,23.0,92,0.00,,SKC,0.05,VWS V14.01,2013-03-10 03:12:00,
2013-03-09 21:17:00,37.4,35.3,29.70,NNW,341,12.0,14.0,92,0.00,,SKC,0.05,VWS V14.01,2013-03-10 03:17:00,
2013-03-09 21:23:00,37.3,35.2,29.70,NNW,337,11.0,16.0,92,0.00,,SKC,0.05,VWS V14.01,2013-03-10 03:23:00,
2013-03-09 21:28:00,37.1,35.0,29.72,NW,317,14.0,18.0,92,0.00,,SKC,0.05,VWS V14.01,2013-03-10 03:28:00,
2013-03-09 21:33:00,37.0,34.9,29.71,NW,318,17.0,21.0,92,0.00,,SKC,0.05,VWS V14.01,2013-03-10 03:33:00,
2013-03-09 21:38:00,36.8,34.7,29.71,NNW,333,16.0,21.0,92,0.00,,SKC,0.05,VWS V14.01,2013-03-10 03:38:00,
2013-03-09 21:43:00,36.6,34.5,29.71,NNW,338,9.0,15.0,92,0.00,,SKC,0.05,VWS V14.01,2013-03-10 03:43:00,
2013-03-09 21:48:00,36.4,34.3,29.71,NNW,343,10.0,14.0,92,0.00,,SKC,0.05,VWS V14.01,2013-03-10 03:48:00,
2013-03-09 21:53:00,36.3,34.2,29.71,NNW,342,15.0,15.0,92,0.01,,SKC,0.06,VWS V14.01,2013-03-10 03:53:00,
2013-03-09 21:58:00,36.2,34.1,29.69,North,5,15.0,26.0,92,0.01,,SKC,0.06,VWS V14.01,2013-03-10 03:58:00,
2013-03-09 22:03:00,36.2,34.1,29.69,NNW,336,19.0,22.0,92,0.01,,SKC,0.06,VWS V14.01,2013-03-10 04:03:00,
2013-03-09 22:08:00,36.1,34.0,29.71,NNW,348,14.0,19.0,92,0.01,,SKC,0.06,VWS V14.01,2013-03-10 04:08:00,
2013-03-09 22:13:00,36.1,34.3,29.72,NNW,334,6.0,16.0,93,0.01,,SKC,0.06,VWS V14.01,2013-03-10 04:13:00,
2013-03-09 22:18:00,36.1,34.3,29.72,NNW,333,12.0,18.0,93,0.03,,SKC,0.08,VWS V14.01,2013-03-10 04:18:00,
2013-03-09 22:23:00,36.1,34.3,29.72,NNW,346,5.0,11.0,93,0.03,,SKC,0.08,VWS V14.01,2013-03-10 04:23:00,
2013-03-09 22:28:00,36.1,34.3,29.71,NNE,19,17.0,23.0,93,0.04,,SKC,0.09,VWS V14.01,2013-03-10 04:28:00,
2013-03-09 22:33:00,36.1,34.3,29.70,North,11,20.0,21.0,93,0.04,,SKC,0.09,VWS V14.01,2013-03-10 04:33:00,
2013-03-09 22:38:00,36.1,34.3,29.71,North,355,13.0,20.0,93,0.05,,SKC,0.10,VWS V14.01,2013-03-10 04:38:00,
2013-03-09 22:43:00,36.2,34.4,29.71,North,9,15.0,16.0,93,0.05,,SKC,0.10,VWS V14.01,2013-03-10 04:43:00,
2013-03-09 22:48:00,36.2,34.4,29.71,NNW,336,12.0,16.0,93,0.06,,SKC,0.11,VWS V14.01,2013-03-10 04:48:00,
2013-03-09 22:53:00,36.1,34.3,29.71,NNW,348,18.0,18.0,93,0.05,,SKC,0.11,VWS V14.01,2013-03-10 04:53:00,
2013-03-09 22:58:00,36.1,34.3,29.71,NNW,348,16.0,24.0,93,0.05,,SKC,0.11,VWS V14.01,2013-03-10 04:58:00,
2013-03-09 23:00:00,36.1,34.3,29.71,NNE,13,19.0,24.0,93,0.05,,SKC,0.11,VWS V14.01,2013-03-10 05:00:00,
2013-03-09 23:01:00,36.0,34.2,29.71,NNW,344,14.0,25.0,93,0.05,,SKC,0.11,VWS V14.01,2013-03-10 05:01:00,
2013-03-09 23:03:00,36.0,34.2,29.71,NNW,344,10.0,20.0,93,0.05,,SKC,0.11,VWS V14.01,2013-03-10 05:03:00,
2013-03-09 23:05:00,36.0,34.2,29.71,North,355,24.0,26.0,93,0.05,,SKC,0.11,VWS V14.01,2013-03-10 05:05:00,
2013-03-09 23:10:00,35.9,34.1,29.72,NNW,347,18.0,24.0,93,0.05,,SKC,0.11,VWS V14.01,2013-03-10 05:10:00,
2013-03-09 23:15:00,35.9,34.1,29.72,NNW,343,13.0,13.0,93,0.05,,SKC,0.11,VWS V14.01,2013-03-10 05:15:00,
2013-03-09 23:20:00,35.8,34.0,29.72,NNW,338,16.0,16.0,93,0.03,,SKC,0.11,VWS V14.01,2013-03-10 05:20:00,
2013-03-09 23:26:00,35.8,34.0,29.72,North,5,13.0,13.0,93,0.02,,SKC,0.11,VWS V14.01,2013-03-10 05:26:00,
2013-03-09 23:31:00,35.7,33.9,29.72,NNW,338,12.0,12.0,93,0.02,,SKC,0.11,VWS V14.01,2013-03-10 05:31:00,
2013-03-09 23:36:00,35.7,33.9,29.71,North,360,22.0,22.0,93,0.01,,SKC,0.11,VWS V14.01,2013-03-10 05:36:00,
2013-03-09 23:41:00,35.6,33.8,29.70,North,355,14.0,14.0,93,0.01,,SKC,0.11,VWS V14.01,2013-03-10 05:41:00,
2013-03-09 23:46:00,35.6,33.8,29.70,NNW,344,13.0,15.0,93,0.00,,SKC,0.11,VWS V14.01,2013-03-10 05:46:00,
2013-03-09 23:51:00,35.5,33.7,29.70,NNW,340,9.0,18.0,93,0.00,,SKC,0.11,VWS V14.01,2013-03-10 05:51:00,
2013-03-09 23:56:00,35.5,33.7,29.70,NNW,338,12.0,19.0,93,0.00,,SKC,0.11,VWS V14.01,2013-03-10 05:56:00,